Portland Troutdale, OR

9:42 PM PDT on September 23, 2017 (GMT -0700)
Portland-Troutdale

Weather History for KTTD - August, 2014

Change the Weather History Date:

Tuesday, August 19, 2014

  Actual Average Record
Temperature  
Mean Temperature 75 °F 68 °F  
Max Temperature 87 °F 82 °F 97 °F (2015)
Min Temperature 63 °F 54 °F 46 °F (1973)
Degree Days  
Heating Degree Days 0 1  
Month to date heating degree days 0 19  
Cooling Degree Days 10 4  
Month to date cooling degree days 177 85  
Growing Degree Days 26 (Base 50)    
Moisture  
Dew Point 58 °F    
Average Humidity 61    
Maximum Humidity 87    
Minimum Humidity 35    
Precipitation  
Precipitation 0.00 in 0.03 in 1.09 in (1968)
Month to date precipitation 0.06 0.39  
Year to date precipitation 21.62 26.25  
Sea Level Pressure  
Sea Level Pressure 29.83 in    
Wind  
Wind Speed 5 mph (NW)    
Max Wind Speed 14 mph    
Max Gust Speed 19 mph    
Visibility 10 miles    
Events      
T = Trace of Precipitation, MM = Missing Value Source: NWS Daily Summary

Daily Weather History Graph

Daily Weather History Graph

Search for Another Location

Airport or City:

Trip Planner

Search our weather history database for the weather conditions in past years. The results will help you decide how hot, cold, wet, or windy it might be!

Date:

Astronomy

Aug. 19, 2014 Rise Set
Actual Time 6:15 AM PDT 8:10 PM PDT
Civil Twilight 5:43 AM PDT 8:42 PM PDT
Nautical Twilight 5:04 AM PDT 9:21 PM PDT
Astronomical Twilight 4:21 AM PDT 10:03 PM PDT
Moon 1:06 AM PDT (8/19) 4:16 PM PDT (8/19)
Length of Visible Light 14h 58m
Length of Day
13h 55m
Waning Crescent, 28% of the Moon is Illuminated
Aug 19
Waning Crescent
Aug 25
New
Sep 2
First Quarter
Sep 8
Full
Sep 15
Last Quarter

Hourly Weather History & Observations

Time (PDT) Temp. Heat Index Dew Point Humidity Pressure Visibility Wind Dir Wind Speed Gust Speed Precip Events Conditions
12:53 AM 73.0 °F - 60.1 °F 64% 29.79 in 10.0 mi Calm Calm - N/A   Clear
1:53 AM 71.1 °F - 60.1 °F 68% 29.80 in 10.0 mi Calm Calm - N/A   Clear
2:53 AM 70.0 °F - 59.0 °F 68% 29.80 in 10.0 mi West 3.5 mph - N/A   Clear
3:53 AM 69.1 °F - 57.9 °F 68% 29.81 in 10.0 mi Calm Calm - N/A   Clear
4:53 AM 68.0 °F - 57.9 °F 70% 29.82 in 10.0 mi Calm Calm - N/A   Clear
5:53 AM 64.9 °F - 60.1 °F 84% 29.82 in 10.0 mi East 4.6 mph - N/A   Clear
6:53 AM 64.0 °F - 57.9 °F 80% 29.83 in 10.0 mi East 4.6 mph - N/A   Clear
7:53 AM 68.0 °F - 57.9 °F 70% 29.84 in 10.0 mi Calm Calm - N/A   Clear
8:53 AM 71.1 °F - 57.0 °F 61% 29.86 in 10.0 mi NW 3.5 mph - N/A   Mostly Cloudy
9:53 AM 72.0 °F - 57.9 °F 61% 29.86 in 10.0 mi Variable 4.6 mph - N/A   Overcast
10:53 AM 75.9 °F - 57.0 °F 52% 29.86 in 10.0 mi Variable 3.5 mph - N/A   Clear
11:53 AM 78.1 °F - 57.0 °F 48% 29.85 in 10.0 mi Variable 6.9 mph - N/A   Clear
12:53 PM 80.1 °F 80.1 °F 55.0 °F 42% 29.84 in 10.0 mi NW 5.8 mph - N/A   Clear
1:53 PM 82.9 °F 81.9 °F 54.0 °F 37% 29.82 in 10.0 mi Variable 5.8 mph - N/A   Clear
2:53 PM 86.0 °F 84.5 °F 55.0 °F 35% 29.81 in 10.0 mi Variable 4.6 mph - N/A   Clear
3:53 PM 87.1 °F 85.9 °F 57.0 °F 36% 29.79 in 10.0 mi NW 8.1 mph - N/A   Clear
4:53 PM 84.9 °F 84.4 °F 59.0 °F 41% 29.78 in 10.0 mi Variable 5.8 mph - N/A   Partly Cloudy
5:53 PM 82.9 °F 82.8 °F 59.0 °F 44% 29.78 in 10.0 mi NW 8.1 mph - N/A   Clear
6:53 PM 80.1 °F 80.7 °F 59.0 °F 48% 29.79 in 10.0 mi NW 9.2 mph - N/A   Clear
7:53 PM 75.0 °F - 59.0 °F 57% 29.81 in 10.0 mi NW 9.2 mph - N/A   Clear
8:53 PM 71.1 °F - 57.9 °F 63% 29.83 in 10.0 mi NNW 5.8 mph - N/A   Clear
9:53 PM 69.1 °F - 55.9 °F 63% 29.86 in 10.0 mi Variable 4.6 mph - N/A   Partly Cloudy
10:53 PM 66.9 °F - 55.9 °F 68% 29.87 in 10.0 mi Variable 4.6 mph - N/A   Clear
11:53 PM 66.0 °F - 54.0 °F 65% 29.88 in 10.0 mi Variable 4.6 mph - N/A   Mostly Cloudy